WetterOnline ( https://www.wetteronline.de )

Wetter aktuell Großenstein

Aktuelles Wetter: Gera/Leumnitz (311m)

6-stündlich | Neueste Meldungen
Ortszeit Temperatur Wetter
Di, 21.09. 2:00 9.1° C bedeckt
Mo, 20.09. 20:00 10.7° C bedeckt
Mo, 20.09. 14:00 12.1° C bedeckt
Mo, 20.09. 8:00 9.4° C bedeckt
Mo, 20.09. 2:00 9.6° C bedeckt
So, 19.09. 20:00 10.2° C bedeckt
So, 19.09. 14:00 10.8° C bedeckt
So, 19.09. 8:00 10.4° C bedeckt
Ortszeit Temperatur Wetter
Di, 21.09. 5:30 8.9° C bedeckt
Di, 21.09. 5:20 8.9° C bedeckt
Di, 21.09. 5:10 8.9° C bedeckt
Di, 21.09. 5:00 8.9° C bedeckt
Di, 21.09. 4:50 8.9° C bedeckt
Di, 21.09. 4:40 9.1° C bedeckt
Di, 21.09. 4:30 9.1° C bedeckt
Di, 21.09. 4:00 9.1° C bedeckt
Di, 21.09. 3:30 8.9° C bedeckt
Di, 21.09. 3:00 9.0° C bedeckt
Di, 21.09. 2:30 9.3° C bedeckt
Ortszeit Relative Feuchte Sichtweite
Di, 21.09. 2:00 89% 30 km
Mo, 20.09. 20:00 65% 60 km
Mo, 20.09. 14:00 64% 40 km
Mo, 20.09. 8:00 90% 19 km
Mo, 20.09. 2:00 83% 27 km
So, 19.09. 20:00 72% 17 km
So, 19.09. 14:00 66% 55 km
So, 19.09. 8:00 91% 30 km
Ortszeit Relative Feuchte Sichtweite
Di, 21.09. 5:30 92% 26 km
Di, 21.09. 5:20 92% -
Di, 21.09. 5:10 92% -
Di, 21.09. 5:00 89% 29 km
Di, 21.09. 4:50 89% -
Di, 21.09. 4:40 87% -
Di, 21.09. 4:30 89% 30 km
Di, 21.09. 4:00 87% 35 km
Di, 21.09. 3:30 91% 29 km
Di, 21.09. 3:00 88% 35 km
Di, 21.09. 2:30 86% 35 km
Ortszeit Niederschlagsmenge Niederschlagsart
Di, 21.09. 2:00 0.0 l/m2 in 6 Std. -
Mo, 20.09. 20:00 0.0 l/m2 in 12 Std. -
Mo, 20.09. 14:00 0.0 l/m2 in 6 Std. -
Mo, 20.09. 8:00 0.0 l/m2 in 12 Std. -
Mo, 20.09. 2:00 0.0 l/m2 in 6 Std. -
So, 19.09. 20:00 0.1 l/m2 in 12 Std. -
So, 19.09. 14:00 0.1 l/m2 in 6 Std. Niederschlag
So, 19.09. 8:00 0.2 l/m2 in 12 Std. Sprühregen, Niederschlag
Ortszeit Niederschlagsmenge Niederschlagsart
Di, 21.09. 5:30 0.0 l/m2 in 1 Std. -
Di, 21.09. 5:20 keine Meldung -
Di, 21.09. 5:10 keine Meldung -
Di, 21.09. 5:00 0.0 l/m2 in 1 Std. -
Di, 21.09. 4:50 keine Meldung -
Di, 21.09. 4:40 keine Meldung -
Di, 21.09. 4:30 0.0 l/m2 in 1 Std. -
Di, 21.09. 4:00 0.0 l/m2 in 1 Std. -
Di, 21.09. 3:30 0.0 l/m2 in 1 Std. -
Di, 21.09. 3:00 0.0 l/m2 in 1 Std. -
Di, 21.09. 2:30 0.0 l/m2 in 1 Std. -
Ortszeit Stärke Spitze Richtung
km/h Bft. km/h Grad Sektor
Di, 21.09. 2:00 7 2 11 280° W
Mo, 20.09. 20:00 4 1 18 40° NO
Mo, 20.09. 14:00 7 2 18 40° NO
Mo, 20.09. 8:00 7 2 11 40° NO
Mo, 20.09. 2:00 7 2 11 40° NO
So, 19.09. 20:00 6 1 24 70° O
So, 19.09. 14:00 11 2 29 50° NO
So, 19.09. 8:00 14 3 22 60° NO
Ortszeit Stärke Spitze Richtung
km/h Bft. km/h Grad Sektor
Di, 21.09. 5:30 4 1 7 260° W
Di, 21.09. 5:20 4 1 - 260° W
Di, 21.09. 5:10 4 1 - 230° SW
Di, 21.09. 5:00 4 1 7 190° S
Di, 21.09. 4:50 4 1 - 190° S
Di, 21.09. 4:40 2 1 - 240° SW
Di, 21.09. 4:30 4 1 4 290° W
Di, 21.09. 4:00 0 0 7 - -
Di, 21.09. 3:30 4 1 4 290° W
Di, 21.09. 3:00 4 1 7 280° W
Di, 21.09. 2:30 4 1 7 50° NO
Ortszeit Untergrenze Bedeckung Gattung
total tief tief mittel hoch
Di, 21.09. 2:00 1500 m 8/8 8/8 - - -
Mo, 20.09. 20:00 1500 m 8/8 8/8 - - -
Mo, 20.09. 14:00 1320 m 8/8 8/8 - - -
Mo, 20.09. 8:00 1230 m 8/8 8/8 - - -
Mo, 20.09. 2:00 1230 m 8/8 8/8 - - -
So, 19.09. 20:00 1140 m 8/8 8/8 - - -
So, 19.09. 14:00 750 m 8/8 8/8 - - -
So, 19.09. 8:00 180 m 8/8 8/8 - - -
Ortszeit Bedeckungsgrad in Achtel und Wolkenuntergrenze
Di, 21.09. 5:30 8(1500m)
Di, 21.09. 5:20 8(1500m)
Di, 21.09. 5:10 8(1500m)
Di, 21.09. 5:00 8(1500m)
Di, 21.09. 4:50 8(1500m)
Di, 21.09. 4:40 8(1500m)
Di, 21.09. 4:30 8(1500m)
Di, 21.09. 4:00 8(1500m)
Di, 21.09. 3:30 8(1500m)
Di, 21.09. 3:00 8(1500m)
Di, 21.09. 2:30 8(1500m)
Ortszeit Luftdruck NN (hPa) Tendenz (hPa in 3 Std.)
Di, 21.09. 2:00 1026 + 0,7
Mo, 20.09. 20:00 1024 + 1,5
Mo, 20.09. 14:00 1021 + 0,5
Mo, 20.09. 8:00 1020 + 1,0
Mo, 20.09. 2:00 1019 0,0
So, 19.09. 20:00 1018 + 0,3
So, 19.09. 14:00 1018 0,0
So, 19.09. 8:00 1017 - 0,1
Ortszeit Luftdruck NN (hPa) Tendenz (hPa in 3 Std.)
Di, 21.09. 5:30 1027 + 0,4
Di, 21.09. 5:20 1027 keine Meldung
Di, 21.09. 5:10 1026 keine Meldung
Di, 21.09. 5:00 1026 + 0,2
Di, 21.09. 4:50 1026 keine Meldung
Di, 21.09. 4:40 1026 keine Meldung
Di, 21.09. 4:30 1026 + 0,3
Di, 21.09. 4:00 1026 + 0,3
Di, 21.09. 3:30 1026 + 0,1
Di, 21.09. 3:00 1026 + 0,4
Di, 21.09. 2:30 1026 + 0,6
Ortszeit Schneehöhe (cm)
Di, 21.09. 2:00 -
Mo, 20.09. 20:00 -
Mo, 20.09. 14:00 -
Mo, 20.09. 8:00 -
Mo, 20.09. 2:00 -
So, 19.09. 20:00 -
So, 19.09. 14:00 -
So, 19.09. 8:00 -
Ortszeit Schneehöhe (cm)
Di, 21.09. 5:30 -
Di, 21.09. 5:20 -
Di, 21.09. 5:10 -
Di, 21.09. 5:00 -
Di, 21.09. 4:50 -
Di, 21.09. 4:40 -
Di, 21.09. 4:30 -
Di, 21.09. 4:00 -
Di, 21.09. 3:30 -
Di, 21.09. 3:00 -
Di, 21.09. 2:30 -
Link zu dieser Seite / Seite empfehlen

Das Wetter in ...